Location: Cave
(41.8160°N, 12.9350°E)
Time: 04:13:54
(UTC+02:00)

ISS - Pass Details

Date: 12 July 2019
Orbit: 411 x 421 km, 51.6° (Epoch: 19 October)

Event Time Altitude Azimuth Distance (km) Brightness Sun altitude
Exits shadow 01:44:59 29° 355° (N) 809 -1.7 -25.7°
Drops below altitude 10° 01:47:31 10° 40° (NE) 1,500 -0.2 -25.7°
Enters shadow 02:50:30 -57° 256° (WSW) 11,172 3.4 -22.3°
